Disclaimer

Please do not use the information listed here in-flight or in-navigation, as they are not provided to us by the airports but are provided by volunteers, so they might be outdated.

Search


Regions


Airport information page

Radio informations:
Ground (GND) - 121.6 MHz

Latitude: N/A
Longitude: N/A
Elevation: N/A
Operating hours: N/A
Operating agency: N/A
Timezone: N/A
Fuel: N/A

Recent METARs:
RCNN 212030Z 35012KT 7000 FEW012 BKN060 15/12 Q1019 RMK A3010
RCNN 212100Z 36012KT 7000 FEW012 BKN100 15/12 Q1019 NOSIG RMK A3010
RCNN 212130Z 01014KT 6000 FEW012 BKN100 15/12 Q1019 NOSIG RMK A3010

Airport on the map: